M I D A S
Marine Information and Data Acquisition System
Tripno 449 of the Zeeleeuw from 2003-03-20 08:16:18 to 2003-03-20 15:41:04
Back to CruiseResearch ActivitiesStationsMapUnderway DataData graphs

EquipmentUnitsComments
TimeDGPSUTC
LatitudeDGPSDM.mWGS84
LongitudeDGPSDM.mWGS84
SpeedMeteo Stationm/sRelative wind speed
DirectionMeteo StationdegRelative wind direction
TemperatureMeteo Stationdeg CelciusAir temperature
PressureMeteo StationPaAtmospheric pressure
HumidityMeteo Station%Relative humidity
Missing or incorrect values are displayed as -999
Metereological data collected by the RV Zeeleeuw from 2003-03-20 08:16:18 to 2003-03-20 15:41:04
Time Latitude Longitude Speed Direction Temperature Pressure Humidity
2003-03-20 08:17 51°13.857 2°55.619 1.6 346 3.8 102860 88
2003-03-20 08:18 51°13.965 2°55.539 2.8 329 3.8 102860 87
2003-03-20 08:19 51°14.091 2°55.447 2.4 330 3.7 102860 87
2003-03-20 08:20 51°14.216 2°55.334 3.5 357 3.7 102860 87
2003-03-20 08:21 51°14.316 2°55.166 3.7 355 3.7 102860 87
2003-03-20 08:22 51°14.427 2°54.968 3.5 353 3.6 102860 87
2003-03-20 08:23 51°14.57 2°54.786 3.9 346 3.7 102860 87
2003-03-20 08:24 51°14.736 2°54.611 4.2 338 3.7 102860 87
2003-03-20 08:25 51°14.915 2°54.45 5 1 3.7 102860 87
2003-03-20 08:26 51°15.084 2°54.279 5.4 12 3.8 102860 87
2003-03-20 08:27 51°15.254 2°54.113 5.4 1 3.8 102860 87
2003-03-20 08:28 51°15.445 2°53.946 4.7 8 3.8 102860 87
2003-03-20 08:29 51°15.634 2°53.794 5.7 10 3.8 102860 87
2003-03-20 08:30 51°15.84 2°53.614 5.7 6 3.8 102870 87
2003-03-20 08:31 51°16.039 2°53.443 5.5 6 3.9 102870 87
2003-03-20 08:32 51°16.242 2°53.262 5.2 356 3.9 102870 87
2003-03-20 08:33 51°16.439 2°53.094 5.1 357 3.9 102870 87
2003-03-20 08:34 51°16.634 2°52.938 5.8 348 3.9 102870 87
2003-03-20 08:35 51°16.83 2°52.784 5.2 341 3.9 102860 87
2003-03-20 08:36 51°17.015 2°52.645 5.5 343 3.8 102870 87
2003-03-20 08:37 51°17.213 2°52.582 5.4 349 3.8 102860 87
2003-03-20 08:38 51°17.415 2°52.55 5.5 336 3.8 102860 87
2003-03-20 08:39 51°17.621 2°52.519 5 341 3.7 102860 87
2003-03-20 08:40 51°17.826 2°52.505 4.3 349 3.7 102870 86
2003-03-20 08:41 51°18.012 2°52.604 5.2 341 3.7 102860 87
2003-03-20 08:42 51°18.153 2°52.828 5.7 336 3.7 102860 87
2003-03-20 08:43 51°18.278 2°53.076 5.7 333 3.7 102860 87
2003-03-20 08:44 51°18.406 2°53.331 6.2 331 3.8 102860 87
2003-03-20 08:45 51°18.532 2°53.577 6.9 327 3.8 102860 87
2003-03-20 08:46 51°18.64 2°53.835 7.2 330 3.8 102860 87
2003-03-20 08:47 51°18.727 2°54.121 8 330 3.8 102850 87
2003-03-20 08:48 51°18.817 2°54.399 6.3 331 3.7 102850 87
2003-03-20 08:49 51°18.906 2°54.682 6.7 329 3.7 102860 87
2003-03-20 08:50 51°18.993 2°54.957 6.6 336 3.7 102850 87
2003-03-20 08:51 51°19.086 2°55.247 5.7 339 3.8 102860 87
2003-03-20 08:52 51°19.174 2°55.522 7.8 328 3.9 102850 87
2003-03-20 08:53 51°19.269 2°55.806 6.8 335 3.9 102850 87
2003-03-20 08:54 51°19.358 2°56.079 6.8 337 3.9 102860 87
2003-03-20 08:55 51°19.448 2°56.354 5 338 3.8 102850 87
2003-03-20 08:56 51°19.531 2°56.634 7 337 3.9 102850 87
2003-03-20 08:57 51°19.612 2°56.911 6.4 335 3.9 102850 87
2003-03-20 08:58 51°19.69 2°57.187 6.7 334 4 102860 87
2003-03-20 08:59 51°19.77 2°57.462 6.4 326 4 102850 87
2003-03-20 09:00 51°19.851 2°57.739 5.5 340 3.9 102860 87
2003-03-20 09:01 51°19.931 2°58.017 6.3 337 4 102850 87
2003-03-20 09:02 51°20.012 2°58.295 7 336 4 102850 87
2003-03-20 09:03 51°20.093 2°58.576 7 339 4.1 102850 87
2003-03-20 09:04 51°20.176 2°58.86 5.6 341 4.1 102860 87
2003-03-20 09:05 51°20.26 2°59.143 7.8 338 4.1 102860 86
2003-03-20 09:06 51°20.344 2°59.424 8.1 343 4.2 102860 86
2003-03-20 09:07 51°20.426 2°59.703 6.5 345 4.1 102860 86
2003-03-20 09:08 51°20.51 2°59.983 6.4 340 4.1 102870 86
2003-03-20 09:09 51°20.59 3°0.266 5.7 339 4.2 102870 86
2003-03-20 09:10 51°20.67 3°0.551 5.7 331 4.2 102870 86
2003-03-20 09:11 51°20.749 3°0.836 5.1 340 4.2 102870 86
2003-03-20 09:12 51°20.821 3°1.13 5.9 342 4.3 102880 86
2003-03-20 09:13 51°20.894 3°1.422 6.7 345 4.2 102880 86
2003-03-20 09:14 51°20.965 3°1.718 8.3 348 4.3 102860 86
2003-03-20 09:15 51°21.038 3°2.014 7.8 348 4.3 102860 85
2003-03-20 09:16 51°21.113 3°2.312 7.7 345 4.2 102880 85
2003-03-20 09:17 51°21.189 3°2.613 8 340 4.3 102870 85
2003-03-20 09:18 51°21.267 3°2.909 7.4 340 4.2 102860 85
2003-03-20 09:19 51°21.347 3°3.215 6.8 349 4.2 102870 85
2003-03-20 09:20 51°21.425 3°3.512 8.3 341 4.2 102870 85
2003-03-20 09:21 51°21.505 3°3.821 7.1 340 4.2 102870 85
2003-03-20 09:22 51°21.582 3°4.125 6.5 346 4.1 102880 85
2003-03-20 09:23 51°21.652 3°4.429 5 345 4.1 102870 85
2003-03-20 09:24 51°21.725 3°4.745 7.1 354 4.2 102870 85
2003-03-20 09:25 51°21.795 3°5.057 5.8 356 4.2 102870 85
2003-03-20 09:26 51°21.867 3°5.371 6.1 359 4.2 102870 85
2003-03-20 09:27 51°21.933 3°5.686 7.1 344 4.2 102870 85
2003-03-20 09:28 51°22 3°6.001 7 343 4.3 102860 85
2003-03-20 09:29 51°22.069 3°6.318 7.1 345 4.3 102860 85
2003-03-20 09:30 51°22.138 3°6.634 5.4 343 4.3 102860 85
2003-03-20 09:31 51°22.207 3°6.95 7.2 342 4.3 102850 85
2003-03-20 09:32 51°22.276 3°7.264 8 341 4.4 102850 85
2003-03-20 09:33 51°22.344 3°7.581 6.2 346 4.3 102860 85
2003-03-20 09:34 51°22.409 3°7.893 7.1 355 4.3 102860 85
2003-03-20 09:35 51°22.479 3°8.213 6.8 349 4.4 102860 85
2003-03-20 09:36 51°22.545 3°8.523 7.8 347 4.4 102850 85
2003-03-20 09:37 51°22.606 3°8.828 6.8 354 4.4 102850 85
2003-03-20 09:38 51°22.629 3°9.087 6.3 341 4.4 102860 85
2003-03-20 09:39 51°22.653 3°9.264 3.1 320 4.4 102860 85
2003-03-20 09:40 51°22.673 3°9.372 2.2 289 4.4 102860 85
2003-03-20 09:41 51°22.686 3°9.441 1.3 242 4.4 102860 85
2003-03-20 09:42 51°22.7 3°9.472 0.8 228 4.4 102860 85
2003-03-20 09:43 51°22.707 3°9.488 2.2 216 4.5 102870 85
2003-03-20 09:44 51°22.71 3°9.5 2.2 219 4.5 102860 85
2003-03-20 09:45 51°22.715 3°9.507 2.5 210 4.5 102870 85
2003-03-20 09:46 51°22.719 3°9.514 2.2 208 4.5 102870 85
2003-03-20 09:47 51°22.72 3°9.522 1.6 215 4.4 102860 85
2003-03-20 09:48 51°22.719 3°9.524 2.2 207 4.4 102860 85
2003-03-20 09:49 51°22.715 3°9.522 2.3 213 4.4 102870 85
2003-03-20 09:50 51°22.715 3°9.517 1.7 200 4.4 102870 85
2003-03-20 09:51 51°22.716 3°9.504 1.1 156 4.4 102870 85
2003-03-20 09:52 51°22.719 3°9.495 1.4 198 4.5 102860 85
2003-03-20 09:53 51°22.722 3°9.49 0.9 206 4.5 102870 85
2003-03-20 09:54 51°22.725 3°9.487 0.4 202 4.6 102870 85
2003-03-20 09:55 51°22.73 3°9.487 0.3 205 4.6 102870 85
2003-03-20 09:56 51°22.736 3°9.487 0.3 217 4.7 102870 85
2003-03-20 09:57 51°22.74 3°9.485 0.1 157 4.8 102870 85
2003-03-20 09:58 51°22.743 3°9.479 0.3 136 4.9 102870 85
2003-03-20 09:59 51°22.745 3°9.472 0.6 99 5 102870 85
2003-03-20 10:00 51°22.746 3°9.465 0.3 99 4.9 102870 84
2003-03-20 10:01 51°22.746 3°9.461 0.5 126 4.9 102860 84
2003-03-20 10:02 51°22.742 3°9.459 0.4 174 4.9 102860 84
2003-03-20 10:03 51°22.734 3°9.458 0.8 150 5 102870 84
2003-03-20 10:04 51°22.726 3°9.458 0.7 152 5 102870 84
2003-03-20 10:05 51°22.717 3°9.468 1 239 5 102860 84
2003-03-20 10:06 51°22.698 3°9.486 0.5 278 5 102860 83
2003-03-20 10:07 51°22.668 3°9.499 0.6 269 5 102860 83
2003-03-20 10:08 51°22.632 3°9.501 1.5 292 5 102860 83
2003-03-20 10:09 51°22.592 3°9.492 1.8 303 4.9 102860 82
2003-03-20 10:10 51°22.552 3°9.468 1.8 354 4.8 102860 83
2003-03-20 10:11 51°22.513 3°9.433 1 4 4.9 102860 83
2003-03-20 10:12 51°22.48 3°9.383 1.2 349 4.9 102850 83
2003-03-20 10:13 51°22.455 3°9.322 1.5 9 5 102860 83
2003-03-20 10:14 51°22.436 3°9.256 1.1 5 5.1 102850 83
2003-03-20 10:15 51°22.424 3°9.178 2.3 26 5.1 102850 83
2003-03-20 10:16 51°22.45 3°9.085 2.5 22 5.2 102850 83
2003-03-20 10:17 51°22.514 3°8.965 4.3 5 5.2 102850 82
2003-03-20 10:18 51°22.614 3°8.823 5 7 5.2 102850 82
2003-03-20 10:19 51°22.721 3°8.676 3.8 357 5.1 102850 82
2003-03-20 10:20 51°22.837 3°8.534 6 3 5.1 102850 82
2003-03-20 10:21 51°22.978 3°8.382 5.7 6 5 102850 82
2003-03-20 10:22 51°23.159 3°8.226 6 358 5 102850 82
2003-03-20 10:23 51°23.367 3°8.125 6.6 353 4.9 102850 82
2003-03-20 10:24 51°23.581 3°8.013 7.3 352 4.9 102840 82
2003-03-20 10:25 51°23.784 3°7.844 6.3 347 4.8 102840 82
2003-03-20 10:26 51°23.967 3°7.615 7.5 359 4.7 102840 82
2003-03-20 10:27 51°24.094 3°7.336 5.1 1 4.7 102840 83
2003-03-20 10:28 51°24.148 3°7.081 3.9 23 4.7 102840 83
2003-03-20 10:29 51°24.254 3°7.024 2.2 310 4.8 102850 83
2003-03-20 10:30 51°24.266 3°7.057 2.4 299 4.7 102850 83
2003-03-20 10:31 51°24.263 3°7.088 2.6 268 4.7 102840 83
2003-03-20 10:32 51°24.256 3°7.107 1.8 279 4.7 102850 83
2003-03-20 10:33 51°24.249 3°7.122 2.1 249 4.7 102840 83
2003-03-20 10:34 51°24.245 3°7.134 1.1 250 4.7 102850 83
2003-03-20 10:35 51°24.24 3°7.143 1.5 225 4.7 102850 83
2003-03-20 10:36 51°24.237 3°7.149 0.8 217 4.7 102850 83
2003-03-20 10:37 51°24.232 3°7.154 1.1 156 4.8 102850 83
2003-03-20 10:38 51°24.228 3°7.157 1.9 186 4.8 102860 83
2003-03-20 10:39 51°24.225 3°7.157 1.3 151 4.9 102860 83
2003-03-20 10:40 51°24.222 3°7.159 1.2 155 5 102860 83
2003-03-20 10:41 51°24.219 3°7.159 3.4 139 5 102860 83
2003-03-20 10:42 51°24.216 3°7.158 3.5 139 4.9 102860 82
2003-03-20 10:43 51°24.216 3°7.156 3.3 130 4.7 102860 82
2003-03-20 10:44 51°24.214 3°7.153 1.9 122 4.6 102860 83
2003-03-20 10:45 51°24.213 3°7.145 2.3 138 4.7 102860 83
2003-03-20 10:46 51°24.212 3°7.137 1.7 127 4.6 102860 83
2003-03-20 10:47 51°24.21 3°7.125 1.6 132 4.6 102860 83
2003-03-20 10:48 51°24.209 3°7.113 1.5 131 4.7 102860 83
2003-03-20 10:49 51°24.212 3°7.102 2 135 4.8 102860 84
2003-03-20 10:50 51°24.216 3°7.09 1.8 138 4.8 102860 83
2003-03-20 10:51 51°24.22 3°7.075 0.9 134 4.8 102860 83
2003-03-20 10:52 51°24.226 3°7.06 0.4 132 4.8 102860 83
2003-03-20 10:53 51°24.232 3°7.041 0.9 103 4.9 102850 83
2003-03-20 10:54 51°24.244 3°7.022 1 116 4.9 102860 83
2003-03-20 10:55 51°24.262 3°7.008 0.9 131 4.9 102870 83
2003-03-20 10:56 51°24.281 3°7.008 0.3 95 4.9 102860 83
2003-03-20 10:57 51°24.302 3°7.023 0.9 312 5.1 102860 83
2003-03-20 10:58 51°24.317 3°7.045 1.2 240 5.2 102850 83
2003-03-20 10:59 51°24.331 3°7.072 1.1 265 5.2 102850 82
2003-03-20 11:00 51°24.374 3°7.093 1.8 312 5.2 102850 82
2003-03-20 11:01 51°24.452 3°7.104 2.5 330 5.1 102850 81
2003-03-20 11:02 51°24.551 3°7.126 3.5 331 5 102850 82
2003-03-20 11:03 51°24.671 3°7.157 4.2 325 4.9 102850 82
2003-03-20 11:04 51°24.797 3°7.189 3.8 316 4.8 102850 82
2003-03-20 11:05 51°24.921 3°7.223 3.5 339 4.7 102850 83
2003-03-20 11:06 51°25.046 3°7.276 3.6 342 4.7 102840 83
2003-03-20 11:07 51°25.178 3°7.331 2.9 350 4.7 102840 83
2003-03-20 11:08 51°25.305 3°7.39 2.8 2 4.8 102840 84
2003-03-20 11:09 51°25.433 3°7.454 2.4 359 4.9 102840 83
2003-03-20 11:10 51°25.562 3°7.516 2.7 3 5 102840 83
2003-03-20 11:11 51°25.692 3°7.578 2.8 349 5 102840 83
2003-03-20 11:12 51°25.822 3°7.638 2.6 320 5.1 102830 82
2003-03-20 11:13 51°25.952 3°7.699 3.9 331 5 102840 82
2003-03-20 11:14 51°26.081 3°7.762 4.1 328 4.9 102830 82
2003-03-20 11:15 51°26.202 3°7.823 2.6 317 4.8 102830 82
2003-03-20 11:16 51°26.307 3°7.879 2.2 337 4.6 102830 83
2003-03-20 11:17 51°26.396 3°7.929 1.2 347 4.7 102840 84
2003-03-20 11:18 51°26.459 3°7.966 0.7 356 4.9 102830 84
2003-03-20 11:19 51°26.513 3°7.997 0.9 346 5 102840 84
2003-03-20 11:20 51°26.562 3°8.029 1.8 304 5.2 102830 84
2003-03-20 11:21 51°26.61 3°8.058 2.2 297 5.2 102830 83
2003-03-20 11:22 51°26.658 3°8.085 1.8 297 5 102830 82
2003-03-20 11:23 51°26.706 3°8.112 2 302 4.9 102830 82
2003-03-20 11:24 51°26.754 3°8.141 1.5 312 4.8 102840 83
2003-03-20 11:25 51°26.803 3°8.169 1.6 289 4.8 102840 83
2003-03-20 11:26 51°26.851 3°8.197 1.9 294 4.7 102840 83
2003-03-20 11:27 51°26.899 3°8.224 1.7 313 4.7 102840 83
2003-03-20 11:28 51°26.948 3°8.252 1.7 314 4.7 102840 83
2003-03-20 11:29 51°26.996 3°8.28 1.7 301 4.6 102840 84
2003-03-20 11:30 51°27.044 3°8.308 1.8 295 4.6 102840 84
2003-03-20 11:31 51°27.091 3°8.334 1.8 309 4.6 102840 84
2003-03-20 11:32 51°27.136 3°8.363 2 306 4.6 102840 84
2003-03-20 11:33 51°27.183 3°8.392 2.6 304 4.6 102840 84
2003-03-20 11:34 51°27.23 3°8.42 1.7 303 4.5 102840 84
2003-03-20 11:35 51°27.276 3°8.45 1.4 291 4.5 102840 84
2003-03-20 11:36 51°27.324 3°8.479 1.8 287 4.5 102850 84
2003-03-20 11:37 51°27.37 3°8.508 2.8 327 4.6 102840 84
2003-03-20 11:38 51°27.418 3°8.536 2.5 336 4.6 102850 84
2003-03-20 11:39 51°27.468 3°8.568 2.4 330 4.6 102850 84
2003-03-20 11:40 51°27.52 3°8.599 2.4 344 4.6 102840 84
2003-03-20 11:41 51°27.573 3°8.632 2.3 350 4.7 102840 84
2003-03-20 11:42 51°27.626 3°8.664 2.4 340 4.7 102840 84
2003-03-20 11:43 51°27.676 3°8.7 1.8 346 4.7 102840 84
2003-03-20 11:44 51°27.725 3°8.749 2 350 4.7 102850 84
2003-03-20 11:45 51°27.768 3°8.821 2.4 334 4.9 102850 84
2003-03-20 11:46 51°27.818 3°8.895 2.4 333 4.9 102850 83
2003-03-20 11:47 51°27.877 3°8.991 2.4 343 4.8 102850 83
2003-03-20 11:48 51°27.935 3°9.106 2.4 352 4.9 102840 83
2003-03-20 11:49 51°28.008 3°9.196 2.5 359 4.9 102840 83
2003-03-20 11:50 51°28.095 3°9.206 2.8 12 5 102840 82
2003-03-20 11:51 51°28.145 3°9.133 1.8 31 5.1 102840 82
2003-03-20 11:52 51°28.134 3°9.11 0.7 83 5.2 102840 83
2003-03-20 11:53 51°28.125 3°9.08 0.6 75 5.4 102830 83
2003-03-20 11:54 51°28.115 3°9.058 0.6 81 5.6 102830 82
2003-03-20 11:55 51°28.109 3°9.043 0.3 109 5.7 102830 82
2003-03-20 11:56 51°28.103 3°9.038 0.1 104 5.8 102840 82
2003-03-20 11:57 51°28.105 3°9.037 1.9 353 5.9 102830 82
2003-03-20 11:58 51°28.174 3°9.035 2.9 355 5.9 102830 80
2003-03-20 11:59 51°28.211 3°9.025 0.7 330 5.8 102830 79
2003-03-20 12:00 51°28.206 3°9.006 0.8 313 5.9 102830 80
2003-03-20 12:01 51°28.198 3°8.992 0.8 313 6 102830 80
2003-03-20 12:02 51°28.189 3°8.982 0.8 312 6.1 102830 80
2003-03-20 12:03 51°28.181 3°8.978 0.7 313 6.2 102830 79
2003-03-20 12:04 51°28.172 3°8.977 1 304 6.3 102840 78
2003-03-20 12:05 51°28.163 3°8.976 0.8 303 6.4 102830 78
2003-03-20 12:06 51°28.154 3°8.976 0.8 278 6.4 102830 77
2003-03-20 12:07 51°28.144 3°8.977 0.7 313 6.4 102840 77
2003-03-20 12:08 51°28.135 3°8.981 0.7 299 6.4 102830 77
2003-03-20 12:09 51°28.127 3°8.985 0.9 282 6.4 102830 77
2003-03-20 12:10 51°28.117 3°8.993 0.9 277 6.4 102830 76
2003-03-20 12:11 51°28.108 3°9.002 1.1 275 6.2 102830 75
2003-03-20 12:12 51°28.1 3°9.011 0.8 271 6.1 102830 75
2003-03-20 12:13 51°28.09 3°9.017 0.7 258 6 102830 76
2003-03-20 12:14 51°28.083 3°9.02 1 278 5.9 102830 76
2003-03-20 12:15 51°28.086 3°9.02 0.7 294 5.8 102830 77
2003-03-20 12:16 51°28.103 3°9.02 1.8 329 5.7 102830 77
2003-03-20 12:17 51°28.125 3°9.032 1.3 343 5.6 102820 78
2003-03-20 12:18 51°28.146 3°9.056 1.5 339 5.5 102830 78
2003-03-20 12:19 51°28.163 3°9.09 1.3 336 5.5 102820 78
2003-03-20 12:20 51°28.178 3°9.132 1.5 337 5.4 102820 79
2003-03-20 12:21 51°28.188 3°9.177 1.2 336 5.4 102820 79
2003-03-20 12:22 51°28.191 3°9.222 0.8 335 5.4 102820 79
2003-03-20 12:23 51°28.19 3°9.269 1.4 332 5.3 102820 80
2003-03-20 12:24 51°28.255 3°9.307 4.1 342 5.3 102820 79
2003-03-20 12:25 51°28.313 3°9.09 6.3 350 5.2 102810 80
2003-03-20 12:26 51°28.347 3°8.753 6.7 347 5.1 102810 80
2003-03-20 12:27 51°28.382 3°8.415 6.7 347 5.1 102800 80
2003-03-20 12:28 51°28.41 3°8.076 6 353 5 102810 81
2003-03-20 12:29 51°28.44 3°7.733 6.4 354 5 102790 81
2003-03-20 12:30 51°28.468 3°7.393 7.4 356 5.1 102790 81
2003-03-20 12:31 51°28.497 3°7.052 7.2 350 4.9 102800 82
2003-03-20 12:32 51°28.513 3°6.706 7.7 351 4.9 102790 82
2003-03-20 12:33 51°28.527 3°6.362 7.4 348 4.9 102800 82
2003-03-20 12:34 51°28.526 3°6.019 7.5 354 4.8 102800 82
2003-03-20 12:35 51°28.524 3°5.678 6.9 358 4.8 102800 82
2003-03-20 12:36 51°28.526 3°5.332 6.9 351 4.8 102800 82
2003-03-20 12:37 51°28.53 3°4.987 6.8 351 4.7 102790 83
2003-03-20 12:38 51°28.534 3°4.655 6.1 353 4.7 102790 83
2003-03-20 12:39 51°28.558 3°4.312 6.1 351 4.7 102780 83
2003-03-20 12:40 51°28.593 3°4.074 3.5 351 4.7 102790 83
2003-03-20 12:41 51°28.609 3°3.931 1.9 334 4.9 102790 83
2003-03-20 12:42 51°28.642 3°3.864 1.4 310 5 102800 83
2003-03-20 12:43 51°28.671 3°3.819 0.7 309 5 102790 83
2003-03-20 12:44 51°28.682 3°3.813 0.9 224 5.1 102800 83
2003-03-20 12:45 51°28.688 3°3.826 0.9 225 5.1 102790 82
2003-03-20 12:46 51°28.695 3°3.841 1.1 214 5.1 102790 82
2003-03-20 12:47 51°28.704 3°3.858 0.8 217 5.1 102790 82
2003-03-20 12:48 51°28.711 3°3.879 0.8 229 5.1 102800 82
2003-03-20 12:49 51°28.722 3°3.894 0.9 237 5.2 102790 82
2003-03-20 12:50 51°28.732 3°3.903 0.8 209 5.2 102790 82
2003-03-20 12:51 51°28.74 3°3.906 0.7 193 5.3 102790 82
2003-03-20 12:52 51°28.739 3°3.903 0.9 119 5.3 102790 82
2003-03-20 12:53 51°28.731 3°3.899 0.2 119 5.4 102790 82
2003-03-20 12:54 51°28.721 3°3.899   119 5.5 102790 82
2003-03-20 12:55 51°28.713 3°3.894 0.1 148 5.6 102790 82
2003-03-20 12:56 51°28.709 3°3.884 0.7 281 5.8 102790 82
2003-03-20 12:57 51°28.71 3°3.873 0.4 212 6 102790 82
2003-03-20 12:58 51°28.711 3°3.862 0.2 212 6.1 102780 81
2003-03-20 12:59 51°28.709 3°3.861 0.8 160 6 102780 80
2003-03-20 13:00 51°28.704 3°3.862 0.5 131 6.1 102780 80
2003-03-20 13:01 51°28.697 3°3.868 1 124 6.1 102780 80
2003-03-20 13:02 51°28.687 3°3.879 1.2 89 6.1 102770 79
2003-03-20 13:03 51°28.675 3°3.896 2.2 91 6 102780 78
2003-03-20 13:04 51°28.662 3°3.917 1.2 80 5.9 102770 78
2003-03-20 13:05 51°28.652 3°3.944 2.4 94 5.9 102770 78
2003-03-20 13:06 51°28.642 3°3.974 1.8 78 5.8 102760 78
2003-03-20 13:07 51°28.634 3°4.005 1.9 89 5.7 102760 78
2003-03-20 13:08 51°28.625 3°4.032 1.4 87 5.7 102760 78
2003-03-20 13:09 51°28.613 3°4.051 1.3 89 5.6 102760 78
2003-03-20 13:10 51°28.602 3°4.061 0.9 99 5.6 102760 78
2003-03-20 13:11 51°28.595 3°4.063 0.4 101 5.5 102760 78
2003-03-20 13:12 51°28.593 3°4.062 0.2 105 5.6 102760 79
2003-03-20 13:13 51°28.598 3°4.058 0.5 136 5.8 102750 80
2003-03-20 13:14 51°28.608 3°4.049 0.4 143 6 102750 80
2003-03-20 13:15 51°28.626 3°4.04 1 242 6.1 102750 79
2003-03-20 13:16 51°28.65 3°4.04 1.3 261 6.2 102760 78
2003-03-20 13:17 51°28.679 3°4.043 1.5 271 6.1 102750 78
2003-03-20 13:18 51°28.696 3°3.987 1.8 355 5.9 102750 77
2003-03-20 13:19 51°28.565 3°3.9 5.9 6 5.7 102750 78
2003-03-20 13:20 51°28.371 3°3.804 6.7 6 5.6 102740 79
2003-03-20 13:21 51°28.182 3°3.666 6.7 3 5.5 102740 79
2003-03-20 13:22 51°27.996 3°3.521 5.9 7 5.4 102730 79
2003-03-20 13:23 51°27.811 3°3.379 6.6 7 5.4 102730 80
2003-03-20 13:24 51°27.626 3°3.236 6.2 8 5.4 102730 80
2003-03-20 13:25 51°27.443 3°3.092 6.4 14 5.3 102730 80
2003-03-20 13:26 51°27.263 3°2.954 5.9 10 5.3 102720 81
2003-03-20 13:27 51°27.081 3°2.816 6 5 5.3 102720 81
2003-03-20 13:28 51°26.898 3°2.677 6.3 5 5.3 102720 81
2003-03-20 13:29 51°26.717 3°2.533 5.8 11 5.2 102710 81
2003-03-20 13:30 51°26.536 3°2.396 6.6 16 5.2 102710 81
2003-03-20 13:31 51°26.355 3°2.252 5.7 13 5.3 102710 82
2003-03-20 13:32 51°26.174 3°2.11 6.1 11 5.3 102710 82
2003-03-20 13:33 51°25.993 3°1.97 5.7 15 5.3 102700 82
2003-03-20 13:34 51°25.811 3°1.828 5.7 1 5.3 102710 82
2003-03-20 13:35 51°25.628 3°1.689 5.5 9 5.4 102700 82
2003-03-20 13:36 51°25.444 3°1.548 5.4 5 5.3 102700 82
2003-03-20 13:37 51°25.259 3°1.407 5.5 11 5.3 102700 82
2003-03-20 13:38 51°25.074 3°1.266 6.1 6 5.3 102700 82
2003-03-20 13:39 51°24.89 3°1.123 6.2 9 5.3 102700 82
2003-03-20 13:40 51°24.703 3°0.977 5.4 4 5.3 102700 82
2003-03-20 13:41 51°24.518 3°0.831 6.2 4 5.3 102690 83
2003-03-20 13:42 51°24.327 3°0.699 6.3 7 5.3 102690 83
2003-03-20 13:43 51°24.131 3°0.593 6.4 3 5.3 102690 83
2003-03-20 13:44 51°23.93 3°0.51 6.5 8 5.4 102680 83
2003-03-20 13:45 51°23.717 3°0.508 6.5 12 5.4 102680 83
2003-03-20 13:46 51°23.509 3°0.475 5.6 9 5.4 102680 83
2003-03-20 13:47 51°23.366 3°0.317 2.5 357 5.5 102690 83
2003-03-20 13:48 51°23.333 3°0.211 0.8 327 5.6 102690 83
2003-03-20 13:49 51°23.302 3°0.134 1.4 2 5.7 102690 83
2003-03-20 13:50 51°23.264 3°0.041 0.4 4 5.7 102690 83
2003-03-20 13:51 51°23.246 3°0.027 0.8 119 5.8 102690 83
2003-03-20 13:52 51°23.249 3°0.041 0.8 149 5.9 102680 83
2003-03-20 13:53 51°23.259 3°0.059 1.2 162 5.9 102680 82
2003-03-20 13:54 51°23.269 3°0.068 1 148 5.9 102690 82
2003-03-20 13:55 51°23.273 3°0.064 0.9 136 6 102680 82
2003-03-20 13:56 51°23.275 3°0.064 1 130 5.9 102680 81
2003-03-20 13:57 51°23.278 3°0.076 1.4 134 5.9 102680 81
2003-03-20 13:58 51°23.279 3°0.088 1.3 133 5.8 102680 81
2003-03-20 13:59 51°23.276 3°0.094 1.5 143 5.8 102670 81
2003-03-20 14:00 51°23.278 3°0.11 1 153 5.7 102680 81
2003-03-20 14:01 51°23.256 3°0.062 1.7 16 5.7 102670 82
2003-03-20 14:02 51°23.23 2°59.985 0.5 171 5.8 102680 82
2003-03-20 14:03 51°23.239 2°59.967 0.7 216 6 102680 82
2003-03-20 14:04 51°23.245 2°59.97 1.5 145 6 102680 82
2003-03-20 14:05 51°23.248 2°59.983 0.8 146 6 102690 82
2003-03-20 14:06 51°23.255 3°0.006 0.8 161 6 102680 81
2003-03-20 14:07 51°23.263 3°0.025 1.3 190 6.1 102690 82
2003-03-20 14:08 51°23.265 3°0.039 1.5 131 6.1 102680 81
2003-03-20 14:09 51°23.271 3°0.051 1.7 189 6 102680 81
2003-03-20 14:10 51°23.292 3°0.058 1.7 228 6 102670 81
2003-03-20 14:11 51°23.319 3°0.07 1.3 208 6 102670 81
2003-03-20 14:12 51°23.334 3°0.083 1.8 122 5.9 102670 81
2003-03-20 14:13 51°23.31 3°0.079 2.4 39 5.8 102670 81
2003-03-20 14:14 51°23.257 3°0.011 1 46 5.9 102670 82
2003-03-20 14:15 51°23.252 2°59.96 0.6 139 6.1 102670 82
2003-03-20 14:16 51°23.265 2°59.933 1.5 208 6.2 102660 82
2003-03-20 14:17 51°23.283 2°59.924 1.4 209 6.2 102660 81
2003-03-20 14:18 51°23.307 2°59.93 1.6 193 6.1 102660 81
2003-03-20 14:19 51°23.333 2°59.944 1.6 204 6 102660 81
2003-03-20 14:20 51°23.36 2°59.963 1.9 221 5.9 102660 81
2003-03-20 14:21 51°23.4 2°59.967 2.2 282 5.8 102650 81
2003-03-20 14:22 51°23.475 3°0.001 3.6 312 5.7 102660 81
2003-03-20 14:23 51°23.533 3°0.095 3.6 345 5.5 102650 82
2003-03-20 14:24 51°23.565 3°0.197 2.9 359 5.5 102650 83
2003-03-20 14:25 51°23.569 3°0.317 4.3 24 5.5 102650 83
2003-03-20 14:26 51°23.456 3°0.424 6.9 14 5.6 102650 83
2003-03-20 14:27 51°23.256 3°0.45 7.3 15 5.6 102640 83
2003-03-20 14:28 51°23.06 3°0.373 6 11 5.7 102640 83
2003-03-20 14:29 51°22.899 3°0.186 6.1 14 5.7 102640 83
2003-03-20 14:30 51°22.741 2°59.994 6.3 13 5.7 102640 83
2003-03-20 14:31 51°22.581 2°59.806 6.1 8 5.8 102640 83
2003-03-20 14:32 51°22.418 2°59.614 6.3 12 5.8 102640 83
2003-03-20 14:33 51°22.262 2°59.409 5.8 10 5.8 102640 83
2003-03-20 14:34 51°22.11 2°59.202 6.3 11 5.8 102640 83
2003-03-20 14:35 51°21.961 2°58.984 5.6 8 5.9 102640 83
2003-03-20 14:36 51°21.836 2°58.735 5.7 8 5.9 102640 83
2003-03-20 14:37 51°21.713 2°58.485 5.7 2 5.9 102640 83
2003-03-20 14:38 51°21.59 2°58.235 5.9 5 5.9 102630 83
2003-03-20 14:39 51°21.463 2°57.99 5.7 5 5.9 102630 83
2003-03-20 14:40 51°21.337 2°57.745 5.7 10 5.9 102630 83
2003-03-20 14:41 51°21.21 2°57.502 5.2 2 6 102630 83
2003-03-20 14:42 51°21.084 2°57.258 5.8 10 6 102620 83
2003-03-20 14:43 51°20.956 2°57.013 5.8 11 6 102630 83
2003-03-20 14:44 51°20.819 2°56.778 6.4 14 6 102620 83
2003-03-20 14:45 51°20.68 2°56.542 5.9 9 6 102620 83
2003-03-20 14:46 51°20.541 2°56.309 6 12 6 102620 83
2003-03-20 14:47 51°20.404 2°56.075 5.7 10 6 102620 83
2003-03-20 14:48 51°20.266 2°55.837 6 13 6 102620 83
2003-03-20 14:49 51°20.13 2°55.6 5.9 10 6 102610 83
2003-03-20 14:50 51°19.992 2°55.364 5.9 6 5.8 102610 83
2003-03-20 14:51 51°19.821 2°55.181 6.4 13 6 102610 83
2003-03-20 14:52 51°19.645 2°55.024 6.4 11 6 102610 83
2003-03-20 14:53 51°19.467 2°54.857 6.5 7 6 102610 84
2003-03-20 14:54 51°19.29 2°54.687 6.7 14 6 102610 84
2003-03-20 14:55 51°19.109 2°54.521 7 12 6 102600 84
2003-03-20 14:56 51°18.925 2°54.375 6.3 10 6.1 102610 84
2003-03-20 14:57 51°18.739 2°54.225 6.6 9 6.1 102610 84
2003-03-20 14:58 51°18.554 2°54.073 6.3 11 6.2 102610 84
2003-03-20 14:59 51°18.37 2°53.922 6.5 10 6.2 102610 84
2003-03-20 15:00 51°18.183 2°53.78 7.2 8 6.3 102610 84
2003-03-20 15:01 51°17.988 2°53.655 6.7 5 6.3 102610 83
2003-03-20 15:02 51°17.798 2°53.536 6.9 5 6.3 102610 83
2003-03-20 15:03 51°17.599 2°53.418 7.4 5 6.3 102610 83
2003-03-20 15:04 51°17.4 2°53.331 6.9 2 6.4 102610 83
2003-03-20 15:05 51°17.194 2°53.256 7.2 2 6.4 102610 83
2003-03-20 15:06 51°16.981 2°53.234 6.7 1 6.4 102610 83
2003-03-20 15:07 51°16.769 2°53.296 7.2 3 6.4 102610 83
2003-03-20 15:08 51°16.562 2°53.448 7.5 6 6.4 102610 83
2003-03-20 15:09 51°16.356 2°53.566 7   6.5 102610 83
2003-03-20 15:10 51°16.15 2°53.67 7.5 7 6.5 102610 83
2003-03-20 15:11 51°15.945 2°53.78 7.3 5 6.5 102600 83
2003-03-20 15:12 51°15.735 2°53.896 7.3 4 6.5 102600 83
2003-03-20 15:13 51°15.527 2°54.019 7.5 6 6.6 102600 83
2003-03-20 15:14 51°15.323 2°54.16 7.6 5 6.6 102600 83
2003-03-20 15:15 51°15.151 2°54.326 6.7 5 6.6 102600 83
2003-03-20 15:16 51°15.002 2°54.536 5.8 7 6.6 102600 83
2003-03-20 15:17 51°14.871 2°54.704 4.3 12 6.7 102600 83
2003-03-20 15:18 51°14.776 2°54.803 2.7 19 6.8 102600 83
2003-03-20 15:19 51°14.687 2°54.893 3.8 15 6.8 102600 83
2003-03-20 15:20 51°14.53 2°54.972 5.3 1 6.8 102600 83
2003-03-20 15:21 51°14.358 2°55.077 5.6 357 6.8 102600 82
2003-03-20 15:22 51°14.253 2°55.274 3.9 355 6.8 102600 82
2003-03-20 15:23 51°14.148 2°55.393 1.7 337 6.8 102600 82
2003-03-20 15:24 51°14.059 2°55.459 0.8 325 6.8 102600 82
2003-03-20 15:25 51°13.983 2°55.515 1.3 342 7 102600 82
2003-03-20 15:26 51°13.893 2°55.582 1.6 348 7 102600 82
2003-03-20 15:27 51°13.81 2°55.643 0.9 31 7.3 102590 81
2003-03-20 15:28 51°13.749 2°55.7 0.5 11 7.5 102600 80
2003-03-20 15:29 51°13.707 2°55.767 1 269 7.8 102590 79
2003-03-20 15:30 51°13.672 2°55.847 0.2 265 8 102590 79
2003-03-20 15:31 51°13.639 2°55.926 1 45 8.3 102580 78
2003-03-20 15:32 51°13.613 2°56.012 0.6 43 8.6 102580 77
2003-03-20 15:33 51°13.6 2°56.09 1 122 8.9 102580 75
2003-03-20 15:34 51°13.598 2°56.103 1 197 9.1 102580 72
2003-03-20 15:35 51°13.597 2°56.103 1.4 165 9.4 102580 70
2003-03-20 15:36 51°13.598 2°56.1 1.4 156 9.6 102580 67
2003-03-20 15:37 51°13.599 2°56.106 1 182 9.7 102580 66
2003-03-20 15:38 51°13.598 2°56.106 1.5 159 9.9 102580 64
2003-03-20 15:39 51°13.598 2°56.105 2 208 10 102580 64
2003-03-20 15:40 51°13.599 2°56.105 1.2 155 10 102580 63